Location: Ciochowice
(50.4289°N, 18.5217°E)
Time: 07:20:24
(UTC+02:00)

ISS - Visible Passes

Search period start: 20 September 2018 00:00
Search period end: 30 September 2018 00:00
Orbit: 402 x 408 km, 51.6° (Epoch: 20 September)

Date Brightness Start Highest point End Pass type
(mag) Time Alt. Az. Time Alt. Az. Time Alt. Az.
22 Sep -1.9 20:27:18 10° SSW 20:28:33 18° S 20:28:33 18° S visible
23 Sep -1.9 19:36:12 10° S 19:38:13 15° SE 19:39:12 14° ESE visible
23 Sep -1.4 21:10:58 10° WSW 21:11:53 17° SW 21:11:53 17° SW visible
24 Sep -3.4 20:19:09 10° SW 20:22:16 42° SSE 20:22:19 42° SSE visible
25 Sep -2.7 19:27:30 10° SSW 19:30:22 28° SSE 19:32:36 14° E visible
25 Sep -2.3 21:03:20 10° WSW 21:05:17 33° WSW 21:05:17 33° WSW visible
26 Sep -3.9 20:11:19 10° WSW 20:14:36 70° SSE 20:15:26 45° E visible
26 Sep -0.5 21:47:52 10° W 21:48:06 12° W 21:48:06 12° W visible
27 Sep -3.4 19:19:24 10° SW 19:22:36 48° SSE 19:25:29 12° E visible
27 Sep -2.7 20:55:45 10° W 20:58:09 43° WNW 20:58:09 43° WNW visible
28 Sep -3.9 20:03:39 10° W 20:06:58 83° N 20:08:07 37° ENE visible
28 Sep -0.6 21:40:16 10° WNW 21:40:47 14° WNW 21:40:47 14° WNW visible
29 Sep -3.8 19:11:34 10° WSW 19:14:52 78° SSE 19:18:02 11° ENE visible
29 Sep -2.8 20:48:09 10° W 20:50:42 48° WNW 20:50:42 48° WNW visible
